Regional Weather Roundup
Issued by NWS Northern Indiana

Home | Current Version | Previous Version | Text Only | Print | Product List | Glossary On
Versions: 1 2 3 4 5 6 7 8 9 10 11 12 13 14 15 16 17 18 19 20 21 22 23 24 25 26 27 28 29 30 31 32 33 34 35 36 37 38 39 40 41 42 43 44 45 46 47 48 49 50
000
ASUS43 KIWX 140410
RWRIWX

KIWX WEATHER ROUNDUP
NATIONAL WEATHER SERVICE NORTHERN INDIANA
1100 PM EST SAT FEB 13 2016

NOTE: "FAIR" INDICATES FEW OR NO CLOUDS BELOW 12,000 FEET WITH NO
SIGNIFICANT WEATHER AND/OR OBSTRUCTIONS TO VISIBILITY.

* THESE STATIONS ARE NOT UNDER NWS QUALITY CONTROL. THEY ALSO MAY NOT
  REPORT WEATHER SUCH AS PRECIPITATION OR FOG.

INZ001>027-140500-
NORTHERN INDIANA

CITY           SKY/WX    TMP DP  RH WIND       PRES   REMARKS
GARY*          PTCLDY    13  -2  50 S5        30.50S WCI   5
VALPARAISO     CLOUDY     8   0  69 CALM      30.48F
MICHIGAN CITY* PTCLDY     1  -2  85 CALM      30.49F
LAPORTE*       CLOUDY     1  -2  88 CALM      30.48F
KNOX*          PTCLDY     3   0  85 CALM      30.49F
SOUTH BEND     CLOUDY     7   1  76 SW3       30.48F
GOSHEN         CLOUDY     8   1  73 S3        30.47S
MONTICELLO*    CLOUDY    11  -2  56 E5        30.49F WCI   3
LOGANSPORT*    CLOUDY    10   0  61 E3        30.50F
ROCHESTER*     CLOUDY     5  -4  66 CALM      30.49F
WARSAW*        CLOUDY     7   1  78 CALM      30.48S
ANGOLA*        CLOUDY    10   5  79 CALM      30.43F
FORT WAYNE     CLOUDY     7   0  73 W7        30.49S WCI  -5
HUNTINGTON*    CLOUDY     4  -3  73 CALM      30.49S
PERU/GRISSOM   CLOUDY     8   0  69 E3        30.47S
MARION*        CLOUDY     6  -5  60 CALM      30.49F

$$
INZ028>050-140500-
CENTRAL INDIANA

CITY           SKY/WX    TMP DP  RH WIND       PRES   REMARKS
LAFAYETTE      CLOUDY    10   3  73 CALM      30.48F
KOKOMO*        CLOUDY     7  -2  66 CALM      30.48F
MUNCIE*        CLOUDY     6  -2  69 CALM      30.48S
INDIANAPOLIS   CLOUDY    14   0  53 NW3       30.46F

$$
MIZ043>046-050>051-056>058-064>065-071>073-077>080-140500-
SOUTHWEST LOWER MICHIGAN

CITY           SKY/WX    TMP DP  RH WIND       PRES   REMARKS
BATTLE CREEK   CLOUDY    11   1  64 N7        30.45S WCI   0
BENTON HARBOR  CLOUDY    17   5  59 CALM      30.48S
COLDWATER*     CLOUDY    12   6  76 CALM      30.45S
HILLSDALE*     CLOUDY    10  -1  63 NW6       30.42S WCI   0
HOLLAND        CLOUDY    13   3  64 E3        30.48S
GRAND RAPIDS   MOCLDY    11   0  61 CALM      30.46S
KALAMAZOO      CLOUDY    12   6  77 N3        30.46S
STURGIS*       CLOUDY     6   3  88 CALM      30.44F
THREE RIVERS*  FLURRIES  12   8  83 CALM      30.47S

$$
OHZ001>008-015>018-024>025-140500-
NORTHWEST OHIO

CITY           SKY/WX    TMP DP  RH WIND       PRES   REMARKS
DEFIANCE       CLOUDY    14   4  64 NW3       30.49S
FINDLAY        CLOUDY    10   4  76 W6        30.46S WCI   0
TOLEDO EXPRESS FLURRIES  13   5  70 NW6       30.47R WCI   4
TOLEDO METCALF CLOUDY    15   3  59 N6        30.48S WCI   6
LIMA           CLEAR      9   2  73 W7        30.46S WCI  -2

$$
AND FOR LAKE MICHIGAN COASTAL AND OPEN LAKE BUOY OBSERVATIONS

STATION/POSITION TEMP    WIND        PRES    VSBY  WAVE
                 AIR SEA DIR/SP/G                  HT/PER
                 (F)     (DEG/KT/KT) (MB)    (MI)  (FT/S)
CALUMET HARBOR    14                 1031.6F
MICHIGAN CITY     10     130/  5/  5   N/A
BURNS HARBOR      12     180/  3/  6 1032.8S
SAINT JOSEPH      17     290/  3/  5 1031.8F

$$
&&



USA.gov is the U.S. government's official web portal to all federal, state and local government web resources and services.